Weather History for Minchumina, AK

Change the Weather History Date:

Wednesday, January 2, 2013

  Actual Average Record
Temperature  
Mean Temperature 12 °F -  
Max Temperature 17 °F -1 °F 19 °F (2011)
Min Temperature 6 °F -13 °F -52 °F (2000)
Degree Days  
Heating Degree Days 54    
Moisture  
Dew Point 9 °F    
Average Humidity 88    
Maximum Humidity 100    
Minimum Humidity 79    
Precipitation  
Precipitation 0.00 in - - ()
Sea Level Pressure  
Sea Level Pressure 29.33 in    
Wind  
Wind Speed 0 mph (NNW)    
Max Wind Speed 4 mph    
Max Gust Speed -    
Visibility 10 miles    
Events      
Averages and records for this station are not official NWS values.
T = Trace of Precipitation, MM = Missing Value Source: NWS Daily Summary

Daily Weather History Graph

Daily Weather History Graph

Search for Another Location

Airport:

Trip Planner

Search our weather history database for the weather conditions in past years. The results will help you decide how hot, cold, wet, or windy it might be!

Date:

Astronomy

Jan. 02, 2013 Rise Set
Actual Time 10:55 AM AKST 3:32 PM AKST
Civil Twilight 9:41 AM AKST 4:45 PM AKST
Nautical Twilight 8:34 AM AKST 5:52 PM AKST
Astronomical Twilight 7:35 AM AKST 6:51 PM AKST
Moon 11:43 PM AKST (1/2) 11:26 AM AKST (1/2)
Length of Visible Light 7h 04m
Length of Day
4h 37m
Waning Gibbous, 74% of the Moon is Illuminated
Jan 2
Waning Gibbous
Jan 4
Last Quarter
Jan 11
New
Jan 18
First Quarter
Jan 26
Full

Hourly Weather History & Observations

Time (AKST) Temp. Windchill Dew Point Humidity Pressure Visibility Wind Dir Wind Speed Gust Speed Precip Events Conditions
12:16 AM 15.8 °F - 12.2 °F 86% 29.15 in 10.0 mi Calm Calm - N/A   Overcast
12:36 AM 17.6 °F - 12.2 °F 79% 29.16 in 10.0 mi Calm Calm - N/A   Scattered Clouds
12:56 AM 12.2 °F - 8.6 °F 85% 29.17 in 10.0 mi Calm Calm - N/A   Mostly Cloudy
1:16 AM 14.0 °F - 10.4 °F 86% 29.17 in 10.0 mi Calm Calm - N/A   Overcast
1:36 AM 14.0 °F 8.2 °F 10.4 °F 86% 29.19 in 10.0 mi NNW 3.5 mph - N/A   Overcast
1:56 AM 14.0 °F - 10.4 °F 86% 29.19 in 10.0 mi Calm Calm - N/A   Overcast
2:16 AM 14.0 °F - 10.4 °F 86% 29.19 in 10.0 mi Calm Calm - N/A   Mostly Cloudy
2:36 AM 12.2 °F - 10.4 °F 92% 29.20 in 10.0 mi Calm Calm - N/A   Partly Cloudy
2:56 AM 12.2 °F - 8.6 °F 85% 29.20 in 10.0 mi Calm Calm - N/A   Clear
3:16 AM 12.2 °F - 10.4 °F 92% 29.20 in 10.0 mi Calm Calm - N/A   Scattered Clouds
3:36 AM 12.2 °F - 10.4 °F 92% 29.20 in 10.0 mi Calm Calm - N/A   Partly Cloudy
3:56 AM 12.2 °F - 10.4 °F 92% 29.21 in 10.0 mi Calm Calm - N/A   Mostly Cloudy
4:16 AM 12.2 °F - 10.4 °F 92% 29.23 in 10.0 mi Calm Calm - N/A   Overcast
4:36 AM 12.2 °F - 10.4 °F 92% 29.23 in 10.0 mi Calm Calm - N/A   Overcast
4:56 AM 12.2 °F - 6.8 °F 79% 29.22 in 10.0 mi Calm Calm - N/A   Overcast
5:16 AM 10.4 °F - 6.8 °F 85% 29.23 in 10.0 mi Calm Calm - N/A   Overcast
5:36 AM 10.4 °F - 8.6 °F 92% 29.24 in 10.0 mi Calm Calm - N/A   Overcast
5:56 AM 10.4 °F - 10.4 °F 100% 29.25 in 10.0 mi Calm Calm - N/A   Overcast
6:16 AM 12.2 °F - 8.6 °F 85% 29.26 in 10.0 mi Calm Calm - N/A   Overcast
6:36 AM 10.4 °F - 6.8 °F 85% 29.27 in 10.0 mi Calm Calm - N/A   Overcast
6:56 AM 12.2 °F - 10.4 °F 92% 29.27 in 10.0 mi Calm Calm - N/A   Overcast
7:16 AM 12.2 °F - 10.4 °F 92% 29.28 in 10.0 mi Calm Calm - N/A   Overcast
7:36 AM 12.2 °F - 10.4 °F 92% 29.27 in 10.0 mi Calm Calm - N/A   Overcast
7:56 AM 12.2 °F - 10.4 °F 92% 29.28 in 10.0 mi Calm Calm - N/A   Overcast
8:16 AM 14.0 °F - 10.4 °F 86% 29.28 in 10.0 mi Calm Calm - N/A   Overcast
8:36 AM 12.2 °F - 10.4 °F 92% 29.30 in 10.0 mi Calm Calm - N/A   Overcast
8:56 AM 14.0 °F - 10.4 °F 86% 29.30 in 10.0 mi Calm Calm - N/A   Overcast
9:16 AM 12.2 °F - 10.4 °F 92% 29.31 in 10.0 mi Calm Calm - N/A   Overcast
9:36 AM 14.0 °F - 10.4 °F 86% 29.32 in 10.0 mi Calm Calm - N/A   Overcast
9:56 AM 14.0 °F - 10.4 °F 86% 29.32 in 10.0 mi Calm Calm - N/A   Overcast
10:16 AM 14.0 °F - 10.4 °F 86% 29.33 in 10.0 mi Calm Calm - N/A   Mostly Cloudy
10:36 AM 14.0 °F - 10.4 °F 86% 29.34 in 10.0 mi Calm Calm - N/A   Overcast
10:56 AM 12.2 °F - 10.4 °F 92% 29.35 in 10.0 mi Calm Calm - N/A   Mostly Cloudy
11:16 AM 12.2 °F - 10.4 °F 92% 29.35 in 10.0 mi Calm Calm - N/A   Partly Cloudy
11:36 AM 14.0 °F - 10.4 °F 86% 29.36 in 10.0 mi Calm Calm - N/A   Mostly Cloudy
11:56 AM 14.0 °F - 10.4 °F 86% 29.36 in 10.0 mi Calm Calm - N/A   Overcast
12:16 PM 14.0 °F - 10.4 °F 86% 29.36 in 10.0 mi Calm Calm - N/A   Overcast
12:36 PM 12.2 °F - 8.6 °F 85% 29.37 in 10.0 mi Calm Calm - N/A   Overcast
12:56 PM 12.2 °F - 10.4 °F 92% 29.37 in 10.0 mi Calm Calm - N/A   Overcast
1:16 PM 14.0 °F - 10.4 °F 86% 29.38 in 10.0 mi Calm Calm - N/A   Overcast
1:36 PM 14.0 °F - 8.6 °F 79% 29.39 in 10.0 mi Calm Calm - N/A   Overcast
1:56 PM 14.0 °F - 10.4 °F 86% 29.39 in 10.0 mi Calm Calm - N/A   Overcast
2:16 PM 14.0 °F - 8.6 °F 79% 29.39 in 10.0 mi Calm Calm - N/A   Overcast
2:36 PM 12.2 °F - 8.6 °F 85% 29.40 in 10.0 mi Calm Calm - N/A   Overcast
2:56 PM 12.2 °F - 8.6 °F 85% 29.40 in 10.0 mi Calm Calm - N/A   Overcast
3:16 PM 12.2 °F - 8.6 °F 85% 29.40 in 10.0 mi Calm Calm - N/A   Overcast
3:36 PM 12.2 °F - 8.6 °F 85% 29.40 in 10.0 mi Calm Calm - N/A   Mostly Cloudy
3:56 PM 12.2 °F - 8.6 °F 85% 29.40 in 10.0 mi Calm Calm - N/A   Mostly Cloudy
4:36 PM 10.4 °F - 8.6 °F 92% 29.41 in 10.0 mi Calm Calm - N/A   Mostly Cloudy
4:56 PM 10.4 °F - 8.6 °F 92% 29.41 in 10.0 mi Calm Calm - N/A   Partly Cloudy
5:16 PM 10.4 °F - 8.6 °F 92% 29.41 in 10.0 mi Calm Calm - N/A   Partly Cloudy
5:36 PM 10.4 °F - 6.8 °F 85% 29.42 in 10.0 mi Calm Calm - N/A   Mostly Cloudy
5:56 PM 10.4 °F - 8.6 °F 92% 29.42 in 10.0 mi Calm Calm - N/A   Overcast
6:16 PM 10.4 °F - 8.6 °F 92% 29.42 in 10.0 mi Calm Calm - N/A   Overcast
6:36 PM 10.4 °F - 8.6 °F 92% 29.42 in 10.0 mi Calm Calm - N/A   Overcast
6:56 PM 8.6 °F - 6.8 °F 92% 29.41 in 10.0 mi Calm Calm - N/A   Mostly Cloudy
7:16 PM 8.6 °F - 6.8 °F 92% 29.41 in 10.0 mi Calm Calm - N/A   Mostly Cloudy
7:36 PM 6.8 °F - 3.2 °F 85% 29.42 in 10.0 mi Calm Calm - N/A   Overcast
7:56 PM 10.4 °F - 8.6 °F 92% 29.43 in 10.0 mi Calm Calm - N/A   Overcast
8:16 PM 10.4 °F - 6.8 °F 85% 29.43 in 10.0 mi Calm Calm - N/A   Overcast
8:36 PM 10.4 °F - 6.8 °F 85% 29.44 in 10.0 mi Calm Calm - N/A   Mostly Cloudy
8:56 PM 10.4 °F - 8.6 °F 92% 29.44 in 10.0 mi Calm Calm - N/A   Mostly Cloudy
9:16 PM 10.4 °F - 8.6 °F 92% 29.44 in 10.0 mi Calm Calm - N/A   Overcast
9:36 PM 10.4 °F - 6.8 °F 85% 29.44 in 10.0 mi Calm Calm - N/A   Overcast
9:56 PM 10.4 °F - 6.8 °F 85% 29.45 in 10.0 mi Calm Calm - N/A   Overcast
10:16 PM 10.4 °F - 6.8 °F 85% 29.45 in 10.0 mi Calm Calm - N/A   Overcast
10:36 PM 10.4 °F - 6.8 °F 85% 29.45 in 10.0 mi Calm Calm - N/A   Overcast
10:56 PM 10.4 °F - 6.8 °F 85% 29.44 in 10.0 mi Calm Calm - N/A   Overcast
11:16 PM 10.4 °F - 6.8 °F 85% 29.45 in 10.0 mi Calm Calm - N/A   Overcast
11:36 PM 8.6 °F - 6.8 °F 92% 29.46 in 10.0 mi Calm Calm - N/A   Overcast
11:56 PM 8.6 °F - 6.8 °F 92% 29.45 in 10.0 mi Calm Calm - N/A   Overcast